Regional Weather Roundup
Issued by NWS

Home | Current Version | Previous Version | Text Only | Print | Product List | Glossary Off
Versions: 1 2 3 4 5 6 7 8 9 10 11 12 13 14 15 16 17 18 19 20 21 22 23 24 25 26 27 28 29 30 31 32 33 34 35 36 37 38 39 40 41 42 43 44 45 46 47 48 49 50

000
ASUS43 KTOP 250608
RWRKS

WEATHER ROUNDUP FOR KANSAS
NATIONAL WEATHER SERVICE GOODLAND KS
1200 AM CST SAT NOV 25 2017

NOTE:  "FAIR" INDICATES FEW OR NO CLOUDS BELOW 12,000 FEET WITH NO
SIGNIFICANT WEATHER AND/OR OBSTRUCTIONS TO VISIBILITY.

KSZ001>006-013>018-027>032-041>047-250700-
NORTHWEST KANSAS

CITY           SKY/WX    TMP DP  RH WIND       PRES   REMARKS
GOODLAND       CLEAR     34  29  82 CALM      30.08R
6HR MIN TEMP:  33; 6HR MAX TEMP:  52;

HAYS           CLOUDY    47  34  60 N8        30.04R
HILL CITY      PTCLDY    41  33  73 N9        30.06R
6HR MIN TEMP:  41; 6HR MAX TEMP:  58;

RUSSELL        CLOUDY    52  35  52 N13       30.02R
6HR MIN TEMP:  52; 6HR MAX TEMP:  64;

$$

KSZ061>065-074>080-084>089-250700-
SOUTHWEST KANSAS

CITY           SKY/WX    TMP DP  RH WIND       PRES   REMARKS
DODGE CITY     PTCLDY    55  38  52 NE12      30.00R
6HR MIN TEMP:  55; 6HR MAX TEMP:  65; 6HR PCP: TRACE;

ELKHART        CLEAR     46  38  71 NE6       30.05S
GARDEN CITY    PTCLDY    52  37  56 E6        30.00S
6HR MIN TEMP:  52; 6HR MAX TEMP:  66; 6HR PCP: TRACE;

LIBERAL        CLEAR     55  38  52 NE12      30.02R
PRATT          CLOUDY    56  37  49 NE8       29.98S
6HR MIN TEMP:  56; 6HR MAX TEMP:  67;

$$

KSZ066>073-081>083-090>101-250700-
SOUTHEAST KANSAS

CITY           SKY/WX    TMP DP  RH WIND       PRES   REMARKS
CHANUTE        MOCLDY    59  42  53 N9        29.93R
6HR MIN TEMP:  54; 6HR MAX TEMP:  68;

COFFEYVILLE    CLOUDY    56  42  59 NW6       29.91R
6HR MIN TEMP:  54; 6HR MAX TEMP:  69;

HUTCHINSON     MOCLDY    59  37  44 N8        29.99R
6HR MIN TEMP:  59; 6HR MAX TEMP:  72;

MEDICINE LODGE   N/A     60  40  47 N8G18     29.97R
NEWTON         CLOUDY    58  35  42 N14       29.98S
PARSONS        MOCLDY    55  43  63 N7        29.92R
6HR MIN TEMP:  51; 6HR MAX TEMP:  67;

WICHITA INTL   MOCLDY    61  38  42 N15       29.95R
6HR MIN TEMP:  60; 6HR MAX TEMP:  68;

WICHITA JABRA  MOCLDY    59  39  47 N14       29.95R
6HR MIN TEMP:  56; 6HR MAX TEMP:  70;

WICHITA MCCONL PTCLDY    61  37  42 NE15      29.95R
WINFIELD       CLOUDY    59  42  53 NW7       29.95R
6HR MIN TEMP:  53; 6HR MAX TEMP:  67;

$$

KSZ007>012-019>026-033>040-048>060-102>105-250700-
NORTHEAST KANSAS

CITY           SKY/WX    TMP DP  RH WIND       PRES   REMARKS
CONCORDIA      CLEAR     46  34  62 N7        30.02R
6HR MIN TEMP:  46; 6HR MAX TEMP:  63;

EMPORIA        MOCLDY    54  37  52 N9        29.97R
6HR MIN TEMP:  54; 6HR MAX TEMP:  71;

LAWRENCE       MOCLDY    53  38  56 NW13      29.96R
6HR MIN TEMP:  53; 6HR MAX TEMP:  67;

MANHATTAN      CLOUDY    52  34  50 N7        29.99R
6HR MIN TEMP:  52; 6HR MAX TEMP:  66;

MARYSVILLE     PTCLDY    39  32  75 N6        30.01R
OLATHE IND     MOCLDY    53  39  59 N20       29.94R
6HR MIN TEMP:  53; 6HR MAX TEMP:  67;

OLATHE EXE     CLOUDY    54  38  54 N21G28    29.92R
6HR MIN TEMP:  54; 6HR MAX TEMP:  68;

SALINA         CLOUDY    54  37  52 N8        30.01R
6HR MIN TEMP:  53; 6HR MAX TEMP:  69;

TOPEKA BILLARD CLOUDY    53  38  56 N14       29.97R
6HR MIN TEMP:  53; 6HR MAX TEMP:  66;

TOPEKA FORBES  MOCLDY    55  37  50 N15       29.97R
6HR MIN TEMP:  55; 6HR MAX TEMP:  68;

$$




USA.gov is the U.S. government's official web portal to all federal, state and local government web resources and services.